Location: Banff
(51.1667°N, 115.5667°W)
Time: 06:39:26
(UTC+00:00)

S-56A Canister/Altair - Pass Details

Date: 04 December 2020
Orbit: 633 x 2499 km, 38.9° (Epoch: 21 January)

Event Time Altitude Azimuth Distance (km) Brightness Sun altitude
Rises 05:01:15 0° 263° (W) 5,419 12.3 -48.9°
Reaches altitude 10° 05:05:37 10° 256° (WSW) 4,118 11.5 -49.5°
Enters shadow 05:09:24 21° 243° (WSW) 3,050 10.6 -50.0°
Maximum altitude 05:14:25 33° 198° (SSW) 2,115 - -50.7°
Drops below altitude 10° 05:20:38 10° 137° (SE) 2,873 - -51.5°
Sets 05:23:09 0° 127° (SE) 3,613 - -51.8°
